Zouar Airport

Jump to: basic info | weather | comments

Related pages: nearby airports | nearby navaids | notams | map

Basic information (top)

Codes: FTTR
Location: lon 20.450001, lat 16.583000, elev 2,655 ft / 809 m msl
Status: small_airport

Weather (top)

Current conditions for Faya Largeau Airport 209nm (387km) SE (rec'd 2015/03/02 09:00Z):

FTTY 020900Z 06016KT 7000 SA 26/M08 Q1016

Airport forecast for Kufra Airport 436nm (807km) ENE (rec'd 2015/03/02 06:30Z):

TAF HLKF 020500Z 0206/0306 06012KT 8000 NSC 
      BECMG 0210/0212 06010G20KT

Latest comments (top)

No comments yet for Zouar Airport

More... (top)

See also NOTAMs and nearby airports and navaids, or visit the Zouar Airport page at the main OurAirports website..